Regional Weather Roundup
Issued by NWS Sioux Falls, SD

Home | Current Version | Previous Version | Graphics & Text | Print | Product List | Glossary On
Versions: 1 2 3 4 5 6 7 8 9 10 11 12 13 14 15 16 17 18 19 20 21 22 23 24 25 26 27 28 29 30 31 32 33 34 35 36 37 38 39 40 41 42 43 44 45 46 47 48 49 50
000
ASUS43 KFSD 290910
RWRFSD

WEATHER ROUNDUP FOR SE SOUTH DAKOTA/SW MINNESOTA/NW IOWA
NATIONAL WEATHER SERVICE SIOUX FALLS SD
400 AM CDT SAT APR 29 2017

NOTE: "FAIR" INDICATES FEW OR NO CLOUDS BELOW 12,000 FEET WITH NO
SIGNIFICANT WEATHER AND OR OBSTRUCTIONS TO VISIBILITY.


SDZ038>040-050-052>070-291000-
SOUTHEAST SOUTH DAKOTA

CITY           SKY/WX    TMP DP  RH WIND       PRES   REMARKS
BROOKINGS      CLOUDY    33  23  66 N7        30.18S WCI  27
CHAMBERLAIN    PTCLDY    39  22  51 N5        30.20R
HURON          CLOUDY    28  21  75 N6        30.21F WCI  22
MADISON        FAIR      32  28  86 N13       30.15F WCI  22
MITCHELL       CLOUDY    31  24  75 N7        30.18F WCI  24
SIOUX FALLS    CLOUDY    36  26  67 N10       30.12F
WINNER         FAIR      37  25  61 N6        30.18S
YANKTON        CLOUDY    39  25  56 N13       30.10F
$$

MNZ071-072-080-081-089-090-097-098-291000-
SOUTHWEST MINNESOTA

CITY           SKY/WX    TMP DP  RH WIND       PRES   REMARKS
FAIRMONT       CLOUDY    36  30  79 N12       30.11F
JACKSON        CLOUDY    32  30  93 N5        30.10F WCI  27
LUVERNE        CLOUDY    36  25  64 N10       30.12F
MARSHALL       CLOUDY    30  25  81 NW8       30.20F WCI  22
MONTEVIDEO     PTCLDY    32  21  64 CALM      30.22R
PIPESTONE      CLOUDY    36  19  51 NE10      30.12F
REDWOOD FALLS  MOCLDY    37  23  56 N5        30.19S
TRACY          PTCLDY    36  27  69 N9        30.18S
WINDOM         CLOUDY    36  27  69 N13       30.13F
WORTHINGTON    CLOUDY    34  25  69 N14       30.11F WCI  25
$$

IAZ001>003-012>014-020>022-031-032-NEZ013-014-SDZ071-291000-
NORTHWEST IOWA

CITY           SKY/WX    TMP DP  RH WIND       PRES   REMARKS
CHEROKEE       CLOUDY    37  33  84 N7        30.09F
DENISON        CLOUDY    41  34  75 NE10      30.08R
ESTHERVILLE    CLOUDY    34  31  88 N12       30.09F WCI  25
LE MARS        CLOUDY    37  30  75 NE7       30.11R
ORANGE CITY    CLOUDY    37  28  70 N10G17    30.08F
SHELDON        CLOUDY    36  28  75 N17       30.06F
SIOUX CITY     CLOUDY    41  33  73 N9        30.09R
SPENCER        MOCLDY    37  31  78 N13       30.07F
$$

ABBREVIATIONS USED IN REMARKS
   TC - TEMPERATURE IN CELSIUS
  WCI - WIND CHILL INDEX
   HX - HEAT INDEX
  VSB - VISIBILITY




USA.gov is the U.S. government's official web portal to all federal, state and local government web resources and services.